AirNav   Air Wisconsin Up To $57,000 Bonus
 
 1099 users online  

L70 Agua Dulce Airport
Agua Dulce, California, USA

GOING TO AGUA DULCE?


FAA INFORMATION EFFECTIVE 17 JUNE 2021

Location

FAA Identifier: L70
Lat/Long: 34-30-12.6534N 118-18-47.3658W
34-30.210890N 118-18.789430W
34.5035148,-118.3131572
(estimated)
Elevation: 2633 ft. / 803 m (estimated)
Variation: 14E (1985)
From city: 2 miles E of AGUA DULCE, CA
Time zone: UTC -7 (UTC -8 during Standard Time)
Zip code: 91350

Airport Operations

Airport use: Open to the public
Activation date: 10/1958
Control tower: no
ARTCC: LOS ANGELES CENTER
FSS: RIVERSIDE FLIGHT SERVICE STATION
NOTAMs facility: RAL (NOTAM-D service available)
Attendance: 0800-1800
AIRPORT UNATNDD CHRISTMAS DAY; THANKSGIVING DAY AND NEW YEARS DAY.
Wind indicator: yes
Segmented circle: yes

Airport Communications

CTAF/UNICOM: 122.8
WX ASOS at PMD (14 nm NE): PHONE 661-272-3798
WX ASOS at WJF (15 nm N): PHONE 661-949-2840
WX AWOS-3PT at WHP (15 nm S): 132.1 (818-899-9820)
WX ASOS at BUR (18 nm S): PHONE 818-841-1384
WX ASOS at VNY (20 nm SW): PHONE 818-904-9213

Nearby radio navigation aids

VOR radial/distance  VOR name  Freq  Var
PMDr223/14.5PALMDALE VORTAC114.5015E
LHSr115/16.9LAKE HUGHES VORTAC114.3515E
VNYr013/19.0VAN NUYS VOR/DME113.1015E
FIMr058/29.5FILLMORE VORTAC112.5015E
SMOr359/30.4SANTA MONICA VOR/DME110.8015E
GMNr108/32.5GORMAN VORTAC116.1016E
LAXr355/34.7LOS ANGELES VORTAC113.6015E
POMr299/36.5POMONA VORTAC110.4015E

Airport Services

Fuel available: 100LL
100LL:SELF SERVICE
Parking: tiedowns
Bottled oxygen: NONE
Bulk oxygen: NONE

Runway Information

Runway 4/22

Dimensions: 4205 x 50 ft. / 1282 x 15 m
Surface: asphalt, in good condition
RUNWAY 4  RUNWAY 22
Latitude: 34-30.002603N34-30.419177N
Longitude: 118-19.124070W118-18.454788W
Elevation: 2556.0 ft.2633.0 ft.
Traffic pattern: leftright
Displaced threshold: 180 ft.332 ft.
Markings: basic, in good conditionbasic, in good condition
Runway end identifier lights: nono
Touchdown point: yes, no lightsyes, no lights
Obstructions: 15 ft. bldg, 240 ft. from runway, 85 ft. right of centerline, 2:1 slope to clear
RWY 04 +15 FT HANGER 140-160 FT FM EOR 80 FT RIGHT.
4 ft. fence, 200 ft. from runway, 35 ft. right of centerline
+4 FT FENCE 0 FT - 200 FT FROM EOR DIAGONALLY FROM 50 FT LEFT TO 35 FT RIGHT.

Airport Ownership and Management from official FAA records

Ownership: Privately-owned
Owner: LAND SEA AIR LEASING CORPORATION
15853 OLDEN STREET, P.O. BOX 9203
SYLMAR, CA 91392
Phone (661) 268-8835
Manager: JOHN BONNER
33638 AGUA DULCE CANYON ROAD, P. O. BOX 9203
AGUA DULCE, CA 91390
Phone (661) 268-8835
DOUG ABNEY, ASST ARPT OPNS - PHONE 661-268-8835 CELL 661-268-8835. EMAIL: SUPPORT@L70AIRPORT.COM

Airport Operational Statistics

Aircraft based on the field: 33
Single engine airplanes: 27
Multi engine airplanes: 2
Helicopters: 3
Gliders airplanes: 1
    
Aircraft operations: avg 60/month *
50% transient general aviation
50% local general aviation
* for 12-month period ending 31 December 2016

Additional Remarks

RIDGE SOUTH OF AIRPORT PARALLEL TO RY VIOLATES 7:1 TRANSITIONAL SURFACE.
FORMATION ARRIVALS AND DEPARTURES PROHIBITED.
NO AEROBATICS PERMITTED.
AIRPORT CLSD SUNSET TO SUNRISE. ALL NIGHT OPERATIONS PROHIBITED BY LOCAL RESTRICTIONS.
ACTVT MIKE 5 TIMES ON CTAF FREQ FOR ARPT WX.
FOR CD CTC JOSHUA APCH AT 661-277-3843.
10-25 FT WIDE DITCH AT 170 FT ALONG SE EDGE OF RY.
TGL NOT PERMITTED.
AVOID FLYING WITHIN 1000 FT OF SCHOOL APRXLY ONE MILE SOUTHWEST. RY 04 DEP AVOID FLYING OVER HOMES 2,000 FT NE OF RY END.

Instrument Procedures

There are no published instrument procedures at L70.

Some nearby airports with instrument procedures:

KPMD - Palmdale USAF Plant 42 Airport (14 nm NE)
KWJF - General Wm J Fox Airfield (15 nm N)
KWHP - Whiteman Airport (15 nm S)
KBUR - Bob Hope Airport (18 nm S)
KVNY - Van Nuys Airport (20 nm SW)
 
Loc | Ops | Rwys | IFR | FBO | Links
Com | Nav | Svcs | Stats | Notes
Area around L70 (Agua Dulce Airport)
 
Road maps at: MapQuest Bing Google
 
Aerial photo
WARNING: Photo may not be current or correct
Aerial photo of L70 (Agua Dulce Airport)
Photo by Mark Robinson & eatsleepfly.com
Photo taken 08-Mar-2014
looking northwest.

Do you have a better or more recent aerial photo of Agua Dulce Airport that you would like to share? If so, please send us your photo.

 
Sectional chart

 
Airport distance calculator
Flying to Agua Dulce Airport? Find the distance to fly.

From to L70

Sunrise and sunset
Times for 20-Jun-2021
 Local
(UTC-7)
 Zulu
(UTC)
Morning civil twilight05:1212:12
Sunrise05:4212:42
Sunset20:0803:08
Evening civil twilight20:3703:37

Current date and time
Zulu (UTC)  20-Jun-2021 19:36:02
Local (UTC-7)  20-Jun-2021 12:36:02
 
METAR
KWJF 
14nm N 
201856Z 26017G24KT 10SM CLR 40/01 A2986 RMK AO2 PK WND 27027/1822 SLP079 T04000006
KPMD 
14nm NE 
201853Z 23023G30KT 10SM CLR 39/M01 A2988 RMK AO2 PK WND 22030/1851 SLP077 T03891006
KWHP 
16nm S 
201855Z 00000KT 10SM SKC 26/15 A2991
KBUR 
18nm S 
201853Z 12010KT 10SM CLR 26/14 A2987 RMK AO2 SLP101 T02560144 $
KVNY 
19nm SW 
201851Z 11008KT 10SM CLR 29/14 A2986 RMK AO2 SLP101 T02890139
KSDB 
25nm NW 
201853Z AUTO 31017G20KT 10SM CLR 34/03 A3007 RMK AO2 SLP106 T03440028
TAF
KWJF 
14nm N 
201737Z 2018/2118 27019KT P6SM SKC FM201900 24020G30KT P6SM SKC FM202100 23025G40KT P6SM SKC FM210300 25018G28KT P6SM SKC FM210600 25011KT P6SM SKC FM211700 27015KT P6SM SKC
KPMD 
14nm NE 
201737Z 2018/2118 26017KT P6SM SKC FM201900 25020G30KT P6SM SKC FM202100 24025G35KT P6SM SKC FM210200 25020G30KT P6SM SKC FM210500 25010KT P6SM SKC FM211700 26015KT P6SM SKC
KBUR 
18nm S 
201737Z 2018/2118 VRB05KT P6SM SCT005 FM201900 18010KT P6SM SKC FM210300 13006KT P6SM SKC FM210700 VRB05KT P6SM SCT007
KVNY 
19nm SW 
201737Z 2018/2118 VRB05KT P6SM SCT006 FM201900 14008KT P6SM SKC FM210500 VRB05KT P6SM SCT007
NOTAMs
Click for the latest NOTAMs
NOTAMs are issued by the DoD/FAA and will open in a separate window not controlled by AirNav.

 

 
 

FBO, Fuel Providers, and Aircraft Ground Support

  
 Business Name 
 
 Contact 
 
 Services / Description 
 
Fuel Prices
 
Comments
  
Agua Dulce Airport 661-268-8835
[web site]
[email]
Airport management, Aviation fuel, Aircraft parking (ramp or tiedown), Hangar leasing / sales, Restrooms

More info about Agua Dulce Airport
Avfuel
100LL
SS $5.58 
 Updated 21-Apr-2021
 
   write
SS=Self service
Update Fuel Prices
 

Would you like to see your business listed on this page?

 If your business provides an interesting product or service to pilots, flight crews, aircraft, or users of the Agua Dulce Airport, you should consider listing it here.  To start the listing process, click on the button below
 
Add a business
 

Other Pages about Agua Dulce Airport

www.l70airport.com
 
Update a link
 
Copyright © AirNav, LLC. All rights reserved. Privacy Policy  Contact